Centerville, IA

7:50 AM CDT on July 25, 2017 (GMT -0500)
Centerville Municipal

Weather History for KTVK - April, 2013

Change the Weather History Date:

Wednesday, April 17, 2013

  Actual Average Record
Temperature  
Mean Temperature 46 °F -  
Max Temperature 53 °F 64 °F 83 °F (1985)
Min Temperature 39 °F 41 °F 25 °F (1951)
Degree Days  
Heating Degree Days 19    
Moisture  
Dew Point 45 °F    
Average Humidity 94    
Maximum Humidity 100    
Minimum Humidity 66    
Precipitation  
Precipitation 0.00 in - - ()
Sea Level Pressure  
Sea Level Pressure 29.93 in    
Wind  
Wind Speed 12 mph (ENE)    
Max Wind Speed 31 mph    
Max Gust Speed 37 mph    
Visibility 7 miles    
Events Rain    
Averages and records for this station are not official NWS values.
T = Trace of Precipitation, MM = Missing Value Source: NWS Daily Summary

Daily Weather History Graph

Daily Weather History Graph

Search for Another Location

Airport or City:

Trip Planner

Search our weather history database for the weather conditions in past years. The results will help you decide how hot, cold, wet, or windy it might be!

Date:

Astronomy

Apr. 17, 2013 Rise Set
Actual Time 6:29 AM CDT 7:53 PM CDT
Civil Twilight 6:00 AM CDT 8:21 PM CDT
Nautical Twilight 5:26 AM CDT 8:56 PM CDT
Astronomical Twilight 4:50 AM CDT 9:32 PM CDT
Moon 11:43 AM CDT (4/17) 1:32 AM CDT (4/17)
Length of Visible Light 14h 20m
Length of Day
13h 23m
Waxing Crescent, 42% of the Moon is Illuminated
Apr 17
Waxing Crescent
Apr 18
First Quarter
Apr 25
Full
May 2
Last Quarter
May 9
New

Hourly Weather History & Observations

Time (CDT) Temp. Windchill Dew Point Humidity Pressure Visibility Wind Dir Wind Speed Gust Speed Precip Events Conditions
12:15 AM 46.4 °F 42.4 °F 35.6 °F 66% 30.17 in 10.0 mi NE 8.1 mph - N/A   Overcast
12:35 AM 46.4 °F 41.9 °F 35.6 °F 66% 30.17 in 10.0 mi ENE 9.2 mph - N/A   Overcast
12:55 AM 46.4 °F 42.4 °F 35.6 °F 66% 30.18 in 10.0 mi ENE 8.1 mph - N/A   Overcast
1:15 AM 46.4 °F 41.5 °F 37.4 °F 71% 30.17 in 10.0 mi ENE 10.4 mph - N/A   Mostly Cloudy
1:35 AM 46.4 °F 41.5 °F 37.4 °F 71% 30.16 in 10.0 mi NE 10.4 mph - N/A   Overcast
1:55 AM 46.4 °F 41.5 °F 37.4 °F 71% 30.15 in 10.0 mi ENE 10.4 mph - N/A   Overcast
2:15 AM 46.4 °F 41.5 °F 37.4 °F 71% 30.14 in 10.0 mi ENE 10.4 mph - N/A   Overcast
2:35 AM 46.4 °F 41.5 °F 37.4 °F 71% 30.12 in 10.0 mi ENE 10.4 mph 16.1 mph N/A   Overcast
2:55 AM 46.4 °F 40.7 °F 37.4 °F 71% 30.11 in 10.0 mi East 12.7 mph 17.3 mph N/A   Mostly Cloudy
3:15 AM 46.4 °F 40.7 °F 37.4 °F 71% 30.11 in 10.0 mi NE 12.7 mph 17.3 mph N/A Rain Light Rain
3:35 AM 44.6 °F 38.4 °F 39.2 °F 81% 30.09 in 10.0 mi East 12.7 mph - N/A Rain Light Rain
3:55 AM 42.8 °F 36.2 °F 41.0 °F 93% 30.09 in 1.0 mi NE 12.7 mph - N/A Rain Heavy Rain
4:15 AM 42.8 °F 36.2 °F 42.8 °F 100% 30.10 in 5.0 mi NE 12.7 mph 18.4 mph N/A Rain Light Rain
4:35 AM 42.8 °F 36.6 °F 42.8 °F 100% 30.10 in 10.0 mi NE 11.5 mph 20.7 mph N/A Rain Light Rain
4:55 AM 42.8 °F 34.5 °F 42.8 °F 100% 30.06 in 10.0 mi East 18.4 mph 23.0 mph N/A Rain Light Rain
5:15 AM 44.6 °F 37.2 °F 42.8 °F 93% 30.05 in 10.0 mi East 17.3 mph 25.3 mph N/A   Overcast
5:35 AM 44.6 °F 39.2 °F 42.8 °F 93% 30.06 in 10.0 mi ENE 10.4 mph 19.6 mph N/A   Overcast
5:55 AM 44.6 °F 37.2 °F 42.8 °F 93% 30.04 in 10.0 mi East 17.3 mph 23.0 mph N/A   Overcast
6:15 AM 46.4 °F 41.1 °F 42.8 °F 87% 30.05 in 10.0 mi ENE 11.5 mph 20.7 mph N/A   Overcast
6:35 AM 46.4 °F 41.5 °F 42.8 °F 87% 30.06 in 10.0 mi ENE 10.4 mph - N/A   Overcast
6:55 AM 44.6 °F 38.1 °F 41.0 °F 87% 30.05 in 10.0 mi ENE 13.8 mph 19.6 mph N/A   Overcast
7:15 AM 44.6 °F 37.4 °F 39.2 °F 81% 30.04 in 10.0 mi ENE 16.1 mph 24.2 mph N/A   Overcast
7:35 AM 44.6 °F 36.4 °F 39.2 °F 81% 29.99 in 10.0 mi East 20.7 mph 31.1 mph N/A Rain Light Rain
7:55 AM 42.8 °F 35.1 °F 41.0 °F 93% 30.01 in 5.0 mi East 16.1 mph 21.9 mph N/A Rain Light Rain
8:15 AM 41.0 °F 32.8 °F 41.0 °F 100% 29.99 in 7.0 mi East 16.1 mph 28.8 mph N/A Rain Light Rain
8:35 AM 41.0 °F 32.5 °F 41.0 °F 100% 29.98 in 10.0 mi East 17.3 mph 25.3 mph N/A   Overcast
9:15 AM 41.0 °F 32.8 °F 41.0 °F 100% 29.98 in 10.0 mi East 16.1 mph 23.0 mph N/A   Overcast
9:35 AM 41.0 °F 33.1 °F 41.0 °F 100% 30.06 in 10.0 mi NW 15.0 mph 23.0 mph N/A   Overcast
9:55 AM 41.0 °F 32.8 °F 41.0 °F 100% 30.01 in 3.0 mi ENE 16.1 mph - N/A Rain Light Rain
10:15 AM 41.0 °F 34.7 °F 41.0 °F 100% 29.99 in 1.2 mi ENE 10.4 mph 19.6 mph N/A Rain Light Rain
10:35 AM 41.0 °F 31.1 °F 41.0 °F 100% 30.13 in 1.8 mi NW 23.0 mph 33.4 mph N/A Rain Rain
10:55 AM 39.2 °F 31.6 °F 39.2 °F 100% 30.05 in 0.8 mi NNE 12.7 mph 20.7 mph N/A   Overcast
11:15 AM 41.0 °F 32.8 °F 41.0 °F 100% 30.02 in 9.0 mi ENE 16.1 mph 20.7 mph N/A Rain Light Rain
11:35 AM 41.0 °F 34.3 °F 41.0 °F 100% 30.00 in 6.0 mi NE 11.5 mph - N/A Rain Light Rain
11:55 AM 41.0 °F 34.3 °F 41.0 °F 100% 29.95 in 8.0 mi East 11.5 mph - N/A Rain Light Rain
12:15 PM 41.0 °F 34.3 °F 41.0 °F 100% 29.92 in 9.0 mi East 11.5 mph - N/A Rain Light Rain
12:35 PM 44.6 °F 39.7 °F 44.6 °F 100% 29.94 in 10.0 mi SSE 9.2 mph - N/A Rain Light Rain
12:55 PM 44.6 °F 40.2 °F 44.6 °F 100% 29.93 in 2.5 mi ENE 8.1 mph - N/A Rain Light Rain
1:15 PM 44.6 °F 40.7 °F 44.6 °F 100% 29.91 in 2.0 mi NNE 6.9 mph - N/A Rain Rain
1:35 PM 44.6 °F 38.8 °F 44.6 °F 100% 29.87 in 1.0 mi ENE 11.5 mph - N/A Rain Heavy Rain
1:55 PM 46.4 °F 40.4 °F 46.4 °F 100% 29.87 in 10.0 mi East 13.8 mph - N/A   Overcast
2:15 PM 46.4 °F 41.1 °F 46.4 °F 100% 29.87 in 2.0 mi ESE 11.5 mph - N/A Rain Light Rain
2:35 PM 46.4 °F 39.8 °F 46.4 °F 100% 29.86 in 2.0 mi ESE 16.1 mph - N/A Rain Rain
2:55 PM 46.4 °F 42.4 °F 46.4 °F 100% 29.82 in 10.0 mi East 8.1 mph - N/A Rain Light Rain
3:35 PM 48.2 °F - 48.2 °F 100% 29.83 in 1.5 mi East 8.1 mph 16.1 mph N/A Rain Light Rain
3:55 PM 48.2 °F - 48.2 °F 100% 29.83 in 1.5 mi North 11.5 mph - N/A Rain Light Rain
4:15 PM 50.0 °F - 50.0 °F 100% 29.80 in 1.5 mi ENE 11.5 mph - N/A Rain Heavy Rain
4:35 PM 50.0 °F - 50.0 °F 100% 29.81 in 1.8 mi ENE 11.5 mph 16.1 mph N/A Rain Rain
4:55 PM 50.0 °F - 50.0 °F 100% 29.78 in 1.0 mi East 16.1 mph 20.7 mph N/A Rain Heavy Rain
5:15 PM 50.0 °F - 50.0 °F 100% 29.75 in 1.5 mi East 20.7 mph 25.3 mph N/A Rain Light Rain
5:35 PM 50.0 °F - 50.0 °F 100% 29.78 in 1.2 mi East 17.3 mph 26.5 mph N/A Rain Light Rain
5:55 PM 51.8 °F - 51.8 °F 100% 29.77 in 1.8 mi East 12.7 mph 24.2 mph N/A Rain Light Rain
6:15 PM 53.6 °F - 53.6 °F 100% 29.75 in 10.0 mi ESE 18.4 mph 31.1 mph N/A   Mostly Cloudy
6:35 PM 53.6 °F - 53.6 °F 100% 29.74 in 10.0 mi East 16.1 mph 28.8 mph N/A Rain Light Rain
7:15 PM 53.6 °F - 53.6 °F 100% 29.73 in 10.0 mi ESE 12.7 mph 18.4 mph N/A Rain Light Rain
7:35 PM 51.8 °F - 51.8 °F 100% 29.70 in 7.0 mi East 11.5 mph 18.4 mph N/A Rain Light Rain
7:55 PM 53.6 °F - 53.6 °F 100% 29.68 in 10.0 mi East 17.3 mph 24.2 mph N/A   Overcast
8:15 PM 53.6 °F - 53.6 °F 100% 29.73 in 1.2 mi NW 31.1 mph 36.8 mph N/A Rain Light Rain
8:35 PM 53.6 °F - 53.6 °F 100% 29.72 in 2.0 mi North 16.1 mph 33.4 mph N/A Rain Rain
8:55 PM 53.6 °F - 53.6 °F 100% 29.76 in 3.0 mi NW 19.6 mph - N/A Rain Light Rain
9:15 PM 51.8 °F - 51.8 °F 100% 29.77 in 0.8 mi North 15.0 mph - N/A Rain Heavy Rain
9:35 PM 51.8 °F - 51.8 °F 100% 29.74 in 3.0 mi NNE 11.5 mph - N/A Rain Heavy Rain
9:55 PM 50.0 °F - 50.0 °F 100% 29.70 in 10.0 mi NNE 12.7 mph 19.6 mph N/A Rain Light Rain
10:15 PM 50.0 °F - 50.0 °F 100% 29.69 in 10.0 mi NE 15.0 mph 19.6 mph N/A Rain Light Rain
10:35 PM 50.0 °F - 50.0 °F 100% 29.72 in 10.0 mi NE 11.5 mph - N/A Rain Light Rain
10:55 PM 50.0 °F - 50.0 °F 100% 29.68 in 5.0 mi NE 13.8 mph - N/A Rain Rain
11:15 PM 50.0 °F - 50.0 °F 100% 29.69 in 8.0 mi ENE 15.0 mph - N/A Rain Light Rain
11:35 PM 50.0 °F - 50.0 °F 100% 29.67 in 3.0 mi East 12.7 mph - N/A Rain Light Rain
11:55 PM 50.0 °F - 50.0 °F 100% 29.65 in 3.0 mi East 17.3 mph 23.0 mph N/A Rain Rain